Saint David, ME

2:51 PM EST on January 21, 2017 (GMT -0500)
Frenchville

Weather History for KFVE - September, 2014

Change the Weather History Date:

Saturday, September 27, 2014

  Actual Average Record
Temperature  
Mean Temperature 63 °F 49 °F  
Max Temperature 70 °F 58 °F 73 °F (2004)
Min Temperature 55 °F 40 °F 28 °F (1997)
Degree Days  
Heating Degree Days 2    
Month to date heating degree days 315  
Since 1 July heating degree days 452  
Cooling Degree Days 0    
Month to date cooling degree days 7  
Year to date cooling degree days 137  
Growing Degree Days 12 (Base 50)    
Moisture  
Dew Point 50 °F    
Average Humidity 67    
Maximum Humidity 88    
Minimum Humidity 47    
Precipitation  
Precipitation 0.00 in 0.10 in 0.96 in (2008)
Month to date precipitation 2.66 3.21  
Year to date precipitation 25.45 25.27  
Sea Level Pressure  
Sea Level Pressure 30.08 in    
Wind  
Wind Speed 9 mph (WNW)    
Max Wind Speed 23 mph    
Max Gust Speed 32 mph    
Visibility 10 miles    
Events      
T = Trace of Precipitation, MM = Missing Value Source: NWS Daily Summary

Daily Weather History Graph

Daily Weather History Graph

Search for Another Location

Airport or City:

Trip Planner

Search our weather history database for the weather conditions in past years. The results will help you decide how hot, cold, wet, or windy it might be!

Date:

Astronomy

Sep. 27, 2014 Rise Set
Actual Time 6:26 AM EDT 6:20 PM EDT
Civil Twilight 5:56 AM EDT 6:51 PM EDT
Nautical Twilight 5:20 AM EDT 7:26 PM EDT
Astronomical Twilight 4:43 AM EDT 8:03 PM EDT
Moon 9:51 AM EDT (9/27) 8:03 PM EDT (9/27)
Length of Visible Light 12h 55m
Length of Day
11h 54m
Waxing Crescent, 11% of the Moon is Illuminated
Sep 27
Waxing Crescent
Oct 1
First Quarter
Oct 8
Full
Oct 15
Last Quarter
Oct 23
New

Hourly Weather History & Observations

Time (EDT) Temp. Dew Point Humidity Pressure Visibility Wind Dir Wind Speed Gust Speed Precip Events Conditions
12:53 AM 57.9 °F 52.0 °F 81% 30.03 in 10.0 mi West 10.4 mph - N/A   Clear
1:53 AM 57.0 °F 52.0 °F 83% 30.02 in 10.0 mi WNW 6.9 mph - N/A   Clear
2:53 AM 57.9 °F 52.0 °F 81% 30.01 in 10.0 mi West 10.4 mph - N/A   Clear
3:53 AM 57.0 °F 52.0 °F 83% 30.01 in 10.0 mi West 10.4 mph - N/A   Clear
4:53 AM 57.0 °F 52.0 °F 83% 30.01 in 10.0 mi West 13.8 mph - N/A   Clear
5:53 AM 57.9 °F 53.1 °F 84% 30.04 in 10.0 mi NW 11.5 mph - N/A   Clear
6:53 AM 57.9 °F 52.0 °F 81% 30.06 in 10.0 mi NW 12.7 mph - N/A   Clear
7:53 AM 60.1 °F 53.1 °F 78% 30.09 in 10.0 mi NW 12.7 mph - N/A   Clear
8:53 AM 61.0 °F 51.1 °F 70% 30.12 in 10.0 mi North 16.1 mph 25.3 mph N/A   Clear
9:53 AM 63.0 °F 50.0 °F 63% 30.13 in 10.0 mi NNW 13.8 mph 20.7 mph N/A   Clear
10:53 AM 64.9 °F 48.9 °F 56% 30.14 in 10.0 mi North 9.2 mph 19.6 mph N/A   Clear
11:53 AM 66.0 °F 48.9 °F 54% 30.13 in 10.0 mi NNW 11.5 mph - N/A   Clear
12:53 PM 66.9 °F 48.9 °F 52% 30.13 in 10.0 mi NW 9.2 mph - N/A   Clear
1:53 PM 69.1 °F 48.9 °F 49% 30.12 in 10.0 mi WNW 12.7 mph 17.3 mph N/A   Clear
2:53 PM 69.1 °F 48.9 °F 49% 30.12 in 10.0 mi WNW 10.4 mph - N/A   Clear
3:53 PM 70.0 °F 48.9 °F 47% 30.12 in 10.0 mi West 8.1 mph - N/A   Clear
4:53 PM 69.1 °F 48.0 °F 47% 30.11 in 10.0 mi WNW 8.1 mph - N/A   Clear
5:53 PM 66.9 °F 48.0 °F 51% 30.09 in 10.0 mi WNW 5.8 mph - N/A   Clear
6:53 PM 64.9 °F 48.0 °F 54% 30.08 in 10.0 mi WSW 3.5 mph - N/A   Clear
7:53 PM 64.9 °F 48.0 °F 54% 30.08 in 10.0 mi SW 4.6 mph - N/A   Clear
8:53 PM 62.1 °F 48.9 °F 62% 30.09 in 10.0 mi SSW 5.8 mph - N/A   Clear
9:53 PM 57.9 °F 50.0 °F 75% 30.08 in 10.0 mi South 5.8 mph - N/A   Clear
10:53 PM 55.4 °F 51.8 °F 88% 30.07 in 10.0 mi SSW 5.8 mph - N/A   Clear
11:53 PM 55.9 °F 50.0 °F 80% 30.05 in 10.0 mi SSW 6.9 mph - N/A   Clear